changsha , China , ASIA

  • Friday
    July 20

      Sunny

      86 °F

      Southeast

       

  • Saturday
    July 21

    Sunny  Cloudy

    100 °F  86 °F

    East  Northwest

        

  • Sunday
    July 22

    Cloudy  Cloudy

    97 °F  86 °F

    West  Northwest

        

  • Monday
    July 23

    Thundershower  Cloudy

    97 °F  86 °F

    North  Southeast

        

  • Tuesday
    July 24

    Cloudy  Cloudy

    99 °F  86 °F

    Northeast  Northeast

        

  • Wednesday
    July 25

    Sunny  Sunny

    99 °F  84 °F

    Northeast  Southeast

        

  • Thursday
    July 26

    Sunny  Sunny

    99 °F  84 °F

    Southeast  South

        

Date   Weather Temperature Humidity Total_rain Visibility Wind
23:00 Sunny 89°F 89% 0mm 999.9km Southeast  1.3m/s
02:00 Sunny 89°F 92.2% 0mm 999.9km Southeast  1.2m/s
05:00 Sunny 86°F 92.3% 0mm 999.9km Southeast  1.2m/s
08:00 Sunny 90°F 86.9% 0mm 999.9km Southeast  1.1m/s
11:00 Sunny 98°F 77.2% 0mm 999.9km Northeast  1.6m/s
14:00 Sunny 100°F 74.1% 0mm 999.9km Southeast  1.9m/s
17:00 Sunny 98°F 73.1% 0mm 999.9km Southeast  2.5m/s
20:00 Sunny 92°F 68.1% 0mm 999.9km Southwest  1.4m/s
23:00 Cloudy 89°F 86.4% 0mm 999.9km Southwest  1.6m/s
02:00 Cloudy 86°F 91.6% 0mm 999.9km Southwest  1.5m/s
05:00 Cloudy 87°F 92.3% 0mm 999.9km Northwest  1.9m/s
08:00 Cloudy 89°F 90.1% 0mm 999.9km Northwest  1.5m/s
11:00 Cloudy 96°F 77.7% 0mm 999.9km Northeast  2.0m/s
14:00 Cloudy 95°F 74.5% 0mm 999.9km Northeast  2.7m/s
17:00 Cloudy 94°F 76.3% 0mm 999.9km Northwest  3.1m/s
20:00 Cloudy 91°F 69.7% 0mm 999.9km Southwest  2.8m/s
23:00 Cloudy 90°F 91.8% 0mm 999.9km Southwest  1.9m/s
02:00 Cloudy 87°F 93.5% 0mm 999.9km Southwest  1.3m/s
05:00 Cloudy 86°F 94.5% 0mm 999.9km Northwest  1.2m/s
08:00 Cloudy 89°F 92.4% 0mm 999.9km Northwest  2.5m/s
11:00 Cloudy 96°F 76.5% 0mm 999.9km Northwest  2.0m/s
14:00 Thundershower 96°F 78.2% 1.7mm 999.9km Southwest  1.5m/s
17:00 Thundershower 96°F 78.6% 0.1mm 999.9km Southwest  2.7m/s
20:00 Cloudy 91°F 70.7% 0mm 999.9km Southwest  1.8m/s
23:00 Cloudy 88°F 89.9% 0mm 999.9km Southwest  1.9m/s
02:00 Cloudy 87°F 92.2% 0mm 999.9km Southeast  1.4m/s
05:00 Cloudy 86°F 92.5% 0mm 999.9km Southeast  1.3m/s
08:00 Cloudy 88°F 87.2% 0mm 999.9km Southeast  1.1m/s
11:00 Cloudy 96°F 76.9% 0mm 999.9km Southeast  2.5m/s
14:00 Cloudy 98°F 75.3% 0mm 999.9km Southeast  2.4m/s
17:00 Cloudy 95°F 77% 0mm 999.9km Southeast  2.7m/s
20:00 Cloudy 92°F 71.1% 0mm 999.9km Southeast  2.0m/s
23:00 Cloudy 89°F 87.9% 0mm 999.9km Southeast  1.2m/s
02:00 Cloudy 88°F 90.5% 0mm 999.9km Southeast  1.2m/s
05:00 Cloudy 86°F 91.7% 0mm 999.9km Southeast  0.8m/s
08:00 Cloudy 90°F 86.9% 0mm 999.9km Southeast  1.4m/s
11:00 Sunny 96°F 69.6% 0mm 999.9km Northeast  2.1m/s
14:00 Sunny 98°F 68.7% 0mm 999.9km Southeast  1.9m/s
17:00 Sunny 98°F 67.8% 0mm 999.9km Northeast  2.5m/s
20:00 Sunny 93°F 63.4% 0mm 999.9km Southeast  2.1m/s
23:00 Sunny 88°F 79.6% 0mm 999.9km Southeast  1.5m/s
02:00 Sunny 87°F 92.1% 0mm 999.9km Southeast  1.6m/s
05:00 Sunny 85°F 85.2% 0mm 999.9km Southeast  1.5m/s
08:00 Sunny 90°F 78.5% 0mm 999.9km Southeast  1.9m/s
11:00 Sunny 94°F 71.9% 0mm 999.9km Southeast  2.0m/s
14:00 Sunny 96°F 69.8% 0mm 999.9km Southeast  2.7m/s
17:00 Sunny 98°F 69.8% 0mm 999.9km Southeast  2.3m/s
20:00 Sunny 92°F 62.4% 0mm 999.9km Southeast  1.4m/s
23:00 Sunny 89°F 83.8% 0mm 999.9km Southeast  1.8m/s
02:00 Sunny 89°F 91% 0mm 999.9km Southeast  1.9m/s
05:00 Sunny 85°F 89.1% 0mm 999.9km Southeast  1.6m/s